| time (UTC) | temp F | wind direction | speed MPH | gust MPH | rain 1hr in | rain 24hr in | rain mn in | humidity % | barometer mb |
| 20260901142728 | 54 | 148 | 5.0 | 17.0 | 0.00 | 0.19 | 0.01 | 71 | 1025.5 |
| 20260901141750 | 54 | 169 | 5.0 | 17.0 | 0.00 | 0.19 | 0.01 | 72 | 1025.4 |
| 20260901140732 | 52 | 128 | 4.0 | 13.0 | 0.00 | 0.19 | 0.01 | 75 | 1025.5 |
| 20260901135730 | 50 | 138 | 5.0 | 14.0 | 0.00 | 0.19 | 0.01 | 76 | 1025.4 |
| 20260901134709 | 49 | 147 | 6.0 | 14.0 | 0.00 | 0.19 | 0.01 | 77 | 1025.3 |
| 20260901133637 | 49 | 153 | 5.0 | 12.0 | 0.00 | 0.19 | 0.01 | 78 | 1025.1 |
| 20260901132627 | 49 | 143 | 4.0 | 11.0 | 0.00 | 0.19 | 0.01 | 78 | 1024.9 |
| 20260901131602 | 49 | 202 | 4.0 | 10.0 | 0.00 | 0.19 | 0.01 | 79 | 1024.8 |
| 20260901130549 | 49 | 167 | 3.0 | 10.0 | 0.00 | 0.19 | 0.01 | 79 | 1024.8 |
| 20260901125524 | 49 | 171 | 3.0 | 9.0 | 0.00 | 0.19 | 0.01 | 79 | 1024.9 |
| 20260901124451 | 48 | 157 | 1.0 | 0.0 | 0.00 | 0.19 | 0.01 | 80 | 1024.8 |
| 20260901123509 | 48 | 163 | 0.0 | 5.0 | 0.00 | 0.19 | 0.01 | 79 | 1024.7 |
| 20260901120256 | 48 | 161 | 5.0 | 10.0 | 0.00 | 0.19 | 0.01 | 79 | 1024.5 |
| 20260901115247 | 48 | 156 | 3.0 | 10.0 | 0.00 | 0.19 | 0.01 | 80 | 1024.4 |
| 20260901114300 | 48 | 175 | 4.0 | 10.0 | 0.00 | 0.19 | 0.01 | 81 | 1024.3 |
| 20260901113250 | 48 | 153 | 3.0 | 9.0 | 0.00 | 0.19 | 0.01 | 81 | 1024.2 |
| 20260901111202 | 48 | 173 | 4.0 | 13.0 | 0.00 | 0.19 | 0.01 | 81 | 1024.1 |
| 20260901104955 | 48 | 159 | 4.0 | 12.0 | 0.00 | 0.19 | 0.01 | 80 | 1024.1 |
| 20260901103959 | 48 | 137 | 3.0 | 10.0 | 0.00 | 0.19 | 0.01 | 79 | 1024.2 |
| 20260901103014 | 49 | 161 | 2.0 | 9.0 | 0.00 | 0.19 | 0.01 | 79 | 1024.2 |
| 20260901102012 | 49 | 167 | 4.0 | 15.0 | 0.00 | 0.19 | 0.01 | 77 | 1024.3 |
| 20260901101006 | 49 | 155 | 6.0 | 15.0 | 0.00 | 0.19 | 0.01 | 77 | 1024.4 |
| 20260901100026 | 49 | 114 | 6.0 | 14.0 | 0.00 | 0.19 | 0.01 | 77 | 1024.2 |
| 20260901095017 | 49 | 127 | 8.0 | 14.0 | 0.00 | 0.19 | 0.01 | 78 | 1024.2 |
| 20260901094020 | 49 | 131 | 7.0 | 15.0 | 0.00 | 0.19 | 0.01 | 79 | 1024.1 |
| 20260901093009 | 49 | 117 | 5.0 | 15.0 | 0.00 | 0.19 | 0.01 | 79 | 1024.1 |
| 20260901092006 | 49 | 109 | 7.0 | 14.0 | 0.00 | 0.19 | 0.01 | 79 | 1024.1 |
| 20260901090942 | 49 | 118 | 6.0 | 13.0 | 0.00 | 0.19 | 0.01 | 80 | 1024.0 |
| 20260901085932 | 48 | 126 | 6.0 | 12.0 | 0.00 | 0.19 | 0.01 | 81 | 1024.1 |
| 20260901084904 | 48 | 132 | 4.0 | 12.0 | 0.00 | 0.19 | 0.01 | 82 | 1023.9 |
| 20260901083914 | 48 | 155 | 3.0 | 11.0 | 0.00 | 0.19 | 0.01 | 82 | 1023.9 |
| 20260901082927 | 48 | 175 | 3.0 | 11.0 | 0.00 | 0.19 | 0.01 | 83 | 1024.1 |
| 20260901081936 | 48 | 146 | 2.0 | 10.0 | 0.00 | 0.19 | 0.01 | 83 | 1024.0 |
| 20260901080938 | 48 | 162 | 0.0 | 7.0 | 0.00 | 0.19 | 0.01 | 83 | 1023.9 |
| 20260901075907 | 48 | 150 | 1.0 | 5.0 | 0.00 | 0.19 | 0.01 | 83 | 1024.0 |
| 20260901074922 | 48 | 167 | 2.0 | 0.0 | 0.00 | 0.19 | 0.01 | 82 | 1024.0 |
| 20260901073941 | 48 | 144 | 1.0 | 7.0 | 0.00 | 0.19 | 0.01 | 82 | 1024.1 |
| 20260901072926 | 49 | 161 | 3.0 | 10.0 | 0.00 | 0.19 | 0.01 | 82 | 1024.2 |
| 20260901071937 | 49 | 165 | 2.0 | 10.0 | 0.00 | 0.19 | 0.01 | 82 | 1024.2 |
| 20260901070958 | 49 | 159 | 2.0 | 7.0 | 0.00 | 0.19 | 0.01 | 82 | 1024.0 |
| 20260901064857 | 50 | 155 | 2.0 | 10.0 | 0.00 | 0.19 | 0.01 | 81 | 1023.9 |
| 20260901063822 | 50 | 164 | 1.0 | 11.0 | 0.00 | 0.18 | 0.00 | 81 | 1023.9 |
| 20260901062803 | 50 | 175 | 0.0 | 9.0 | 0.00 | 0.18 | 0.00 | 82 | 1024.1 |
| 20260901061814 | 50 | 178 | 2.0 | 10.0 | 0.00 | 0.18 | 0.00 | 82 | 1024.0 |
| 20260901060742 | 49 | 185 | 3.0 | 13.0 | 0.00 | 0.18 | 0.00 | 82 | 1024.2 |
| 20260901055725 | 49 | 167 | 2.0 | 11.0 | 0.00 | 0.18 | 0.18 | 83 | 1024.1 |
| 20260901054713 | 49 | 166 | 3.0 | 10.0 | 0.00 | 0.18 | 0.18 | 83 | 1024.0 |
| 20260901053735 | 49 | 155 | 4.0 | 11.0 | 0.00 | 0.18 | 0.18 | 84 | 1023.9 |
| 20260901052733 | 48 | 143 | 2.0 | 10.0 | 0.00 | 0.18 | 0.18 | 84 | 1024.0 |
| 20260901050545 | 48 | 118 | 3.0 | 8.0 | 0.00 | 0.18 | 0.18 | 84 | 1024.7 |
| 20260901045553 | 49 | 158 | 0.0 | 0.0 | 0.00 | 0.18 | 0.18 | 83 | 1025.0 |
| 20260901044531 | 49 | 161 | 2.0 | 10.0 | 0.00 | 0.18 | 0.18 | 83 | 1024.9 |
| 20260901042330 | 49 | 161 | 3.0 | 10.0 | 0.00 | 0.18 | 0.18 | 84 | 1024.9 |
| 20260901041320 | 49 | 151 | 3.0 | 10.0 | 0.00 | 0.18 | 0.18 | 84 | 1025.0 |
| 20260901040335 | 49 | 157 | 2.0 | 9.0 | 0.00 | 0.18 | 0.18 | 86 | 1024.9 |
| 20260901035329 | 49 | 150 | 4.0 | 9.0 | 0.00 | 0.18 | 0.18 | 86 | 1024.9 |
| 20260901034305 | 49 | 143 | 3.0 | 8.0 | 0.00 | 0.18 | 0.18 | 85 | 1025.1 |
| 20260901032053 | 49 | 148 | 0.0 | 4.0 | 0.00 | 0.18 | 0.18 | 87 | 1025.2 |
| 20260901031025 | 49 | 186 | 0.0 | 0.0 | 0.00 | 0.18 | 0.18 | 87 | 1025.2 |
| 20260901030019 | 49 | 186 | 0.0 | 0.0 | 0.00 | 0.18 | 0.18 | 85 | 1025.3 |
| 20260901025010 | 49 | 188 | 1.0 | 3.0 | 0.00 | 0.18 | 0.18 | 86 | 1025.0 |
| 20260901024032 | 49 | 161 | 3.0 | 9.0 | 0.00 | 0.18 | 0.18 | 84 | 1024.6 |
| 20260901023006 | 49 | 144 | 0.0 | 5.0 | 0.00 | 0.18 | 0.18 | 85 | 1024.6 |
| 20260901021940 | 49 | 132 | 0.0 | 6.0 | 0.00 | 0.18 | 0.18 | 85 | 1024.5 |
| 20260901020942 | 49 | 173 | 0.0 | 0.0 | 0.00 | 0.18 | 0.18 | 87 | 1024.7 |
| 20260901015915 | 49 | 175 | 0.0 | 0.0 | 0.00 | 0.18 | 0.18 | 86 | 1024.9 |
| 20260901014849 | 50 | 175 | 0.0 | 0.0 | 0.00 | 0.18 | 0.18 | 86 | 1025.2 |
| 20260901013823 | 50 | 178 | 0.0 | 2.0 | 0.00 | 0.18 | 0.18 | 86 | 1025.3 |
| 20260901012805 | 50 | 159 | 0.0 | 0.0 | 0.00 | 0.18 | 0.18 | 86 | 1025.3 |
| 20260901011818 | 50 | 147 | 0.0 | 5.0 | 0.00 | 0.18 | 0.18 | 86 | 1025.2 |
| 20260901010816 | 50 | 131 | 0.0 | 0.0 | 0.00 | 0.18 | 0.18 | 88 | 1025.3 |
| 20260901005819 | 50 | 133 | 0.0 | 0.0 | 0.00 | 0.18 | 0.18 | 87 | 1025.2 |
| 20260901004834 | 51 | 143 | 0.0 | 0.0 | 0.00 | 0.18 | 0.18 | 88 | 1025.3 |
| 20260901003825 | 51 | 338 | 1.0 | 6.0 | 0.00 | 0.18 | 0.18 | 88 | 1025.2 |
| 20260901002804 | 51 | 237 | 0.0 | 2.0 | 0.00 | 0.18 | 0.18 | 87 | 1025.1 |
| 20260901001734 | 50 | 169 | 1.0 | 14.0 | 0.00 | 0.18 | 0.18 | 88 | 1024.9 |
| 20260901000745 | 50 | 165 | 0.0 | 0.0 | 0.00 | 0.18 | 0.18 | 88 | 1024.9 |
| 20260831235716 | 50 | 150 | 0.0 | 0.0 | 0.00 | 0.18 | 0.18 | 88 | 1024.8 |
| 20260831234730 | 49 | 160 | 1.0 | 8.0 | 0.00 | 0.18 | 0.18 | 88 | 1024.6 |
| 20260831233702 | 49 | 130 | 3.0 | 11.0 | 0.00 | 0.18 | 0.18 | 87 | 1024.5 |
| 20260831232640 | 49 | 156 | 1.0 | 8.0 | 0.00 | 0.18 | 0.18 | 87 | 1024.6 |
| 20260831230436 | 49 | 123 | 2.0 | 8.0 | 0.27 | 0.18 | 0.18 | 84 | 1024.8 |
| 20260831225424 | 52 | 188 | 2.0 | 13.0 | 0.55 | 0.12 | 0.13 | 79 | 1025.5 |
| 20260831224419 | 54 | 177 | 1.0 | 0.0 | 0.05 | 0.04 | 0.04 | 79 | 1025.2 |
| 20260831223408 | 56 | 150 | 1.0 | 7.0 | 0.18 | 0.03 | 0.03 | 68 | 1024.8 |
| 20260831222432 | 58 | 215 | 2.0 | 9.0 | 0.00 | 0.00 | 0.00 | 62 | 1024.5 |
| 20260831221448 | 59 | 212 | 2.0 | 10.0 | 0.00 | 0.00 | 0.00 | 74 | 1024.0 |
| 20260831220432 | 59 | 157 | 3.0 | 13.0 | 0.00 | 0.00 | 0.00 | 72 | 1023.5 |
| 20260831215407 | 59 | 156 | 4.0 | 13.0 | 0.00 | 0.00 | 0.00 | 72 | 1023.3 |
| 20260831214412 | 59 | 119 | 5.0 | 12.0 | 0.00 | 0.00 | 0.00 | 72 | 1023.3 |
| 20260831211117 | 61 | 141 | 8.0 | 18.0 | 0.00 | 0.00 | 0.00 | 66 | 1023.4 |
| 20260831210046 | 62 | 116 | 6.0 | 15.0 | 0.00 | 0.00 | 0.00 | 65 | 1023.7 |
| 20260831205110 | 62 | 115 | 6.0 | 12.0 | 0.00 | 0.00 | 0.00 | 64 | 1023.8 |
| 20260831201815 | 64 | 132 | 8.0 | 15.0 | 0.00 | 0.00 | 0.00 | 58 | 1023.9 |
| 20260831200749 | 64 | 126 | 8.0 | 14.0 | 0.00 | 0.00 | 0.00 | 56 | 1023.8 |
| 20260831194553 | 66 | 175 | 5.0 | 11.0 | 0.00 | 0.00 | 0.00 | 54 | 1023.9 |
| 20260831193617 | 66 | 145 | 5.0 | 14.0 | 0.00 | 0.00 | 0.00 | 53 | 1024.3 |
| 20260831192635 | 66 | 131 | 3.0 | 15.0 | 0.00 | 0.00 | 0.00 | 52 | 1024.5 |
| 20260831191619 | 66 | 163 | 6.0 | 15.0 | 0.00 | 0.00 | 0.00 | 53 | 1024.7 |
| 20260831190631 | 66 | 162 | 5.0 | 13.0 | 0.00 | 0.00 | 0.00 | 53 | 1024.6 |
| 20260831185655 | 65 | 217 | 5.0 | 15.0 | 0.00 | 0.00 | 0.00 | 56 | 1024.8 |
| 20260831184718 | 65 | 130 | 8.0 | 15.0 | 0.00 | 0.00 | 0.00 | 54 | 1024.9 |
| 20260831183722 | 67 | 137 | 6.0 | 14.0 | 0.00 | 0.00 | 0.00 | 50 | 1025.0 |
| 20260831182733 | 66 | 130 | 4.0 | 13.0 | 0.00 | 0.00 | 0.00 | 53 | 1025.1 |
| 20260831181702 | 64 | 116 | 7.0 | 15.0 | 0.00 | 0.00 | 0.00 | 55 | 1025.4 |
| 20260831180650 | 63 | 130 | 9.0 | 16.0 | 0.00 | 0.00 | 0.00 | 58 | 1025.5 |
| 20260831175626 | 62 | 142 | 6.0 | 17.0 | 0.00 | 0.00 | 0.00 | 61 | 1025.7 |
| 20260831174553 | 61 | 121 | 7.0 | 17.0 | 0.00 | 0.00 | 0.00 | 61 | 1025.9 |
| 20260831173532 | 60 | 178 | 5.0 | 16.0 | 0.00 | 0.00 | 0.00 | 62 | 1026.1 |
| 20260831171416 | 60 | 154 | 7.0 | 20.0 | 0.00 | 0.00 | 0.00 | 63 | 1026.1 |
| 20260831170345 | 60 | 132 | 7.0 | 16.0 | 0.00 | 0.00 | 0.00 | 63 | 1025.9 |
| 20260831164139 | 63 | 125 | 6.0 | 17.0 | 0.00 | 0.00 | 0.00 | 55 | 1025.6 |
| 20260831163154 | 64 | 94 | 4.0 | 9.0 | 0.00 | 0.00 | 0.00 | 57 | 1025.4 |
| 20260831162456 | 65 | 136 | 5.0 | 14.0 | 0.00 | 0.00 | 0.00 | 56 | 1025.3 |
| 20260831161521 | 66 | 95 | 3.0 | 12.0 | 0.00 | 0.00 | 0.00 | 53 | 1025.3 |
| 20260831160541 | 64 | 286 | 3.0 | 12.0 | 0.00 | 0.00 | 0.00 | 57 | 1025.2 |
| 20260831154407 | 63 | 121 | 1.0 | 8.0 | 0.00 | 0.00 | 0.00 | 57 | 1025.2 |
| 20260831153416 | 61 | 97 | 2.0 | 12.0 | 0.00 | 0.00 | 0.00 | 61 | 1025.2 |
| 20260831151234 | 59 | 114 | 3.0 | 9.0 | 0.00 | 0.00 | 0.00 | 65 | 1025.3 |
| 20260831150232 | 57 | 149 | 0.0 | 3.0 | 0.00 | 0.00 | 0.00 | 69 | 1025.6 |
| 20260831145257 | 57 | 171 | 3.0 | 9.0 | 0.00 | 0.00 | 0.00 | 68 | 1025.5 |
| 20260831144322 | 56 | 184 | 3.0 | 10.0 | 0.00 | 0.00 | 0.00 | 69 | 1025.6 |